Home > Weather > Tulsa > Past weeks

Flag for USA Past Weather in Tulsa, Oklahoma, USA — Yesterday and Last 2 Weeks

Now
80 °F

Overcast.


Feels Like: 82 °F
Forecast: 71 / 91 °F
Wind: 9 mph from Southwest

Location: Tulsa International Airport

Current Time: Jun 30, 2016 at 9:08:14 AM

Latest Report: Jun 30, 2016 at 7:53 AM


Visibility: 10 mi

Pressure: 29.96 "Hg

Humidity: 64%

Dew Point: 67 °F

Location of TulsaLocation

Past Weather in Tulsa — Graph

°F

Tulsa Temperature Yesterday

Maximum temperature yesterday: 95 °F (at 2:53 PM)
Minimum temperature yesterday: 70 °F (at 2:53 AM)
Average temperature yesterday: 84 °F

High & Low Weather Summary for the Past Weeks

 TemperatureHumidityPressure
High98 °F (Jun 15, 2:53 PM)100% (Jun 27, 2:53 AM)30.18 "Hg (Jun 27, 2:53 AM)
Low70 °F (Jun 29, 2:53 AM)27% (Jun 28, 5:53 PM)29.76 "Hg (Jun 15, 5:53 PM)
Average86 °F64%29.97 "Hg
* Reported Jun 15 7:53 AM — Jun 30 7:53 AM, Tulsa, Weather by CustomWeather, © 2016

Note: Actual official high and low records may vary slightly from our data, if they occured in-between our weather recording intervals... More about our weather records

Advertising

Tulsa Weather History for the Previous 24 Hours

Scroll right to see more
 ConditionsComfort  
Time TempWeatherWind HumidityBarometerVisibility
7:53 AM
Thu, Jun 30
80 °FOvercast.9 mph64%29.96 "Hg10 mi
6:53 AM77 °FPassing clouds.8 mph71%29.95 "Hg10 mi
5:53 AM77 °FClear.9 mph71%29.94 "Hg10 mi
4:53 AM78 °FClear.9 mph66%29.93 "Hg10 mi
3:53 AM78 °FPassing clouds.7 mph66%29.93 "Hg10 mi
2:53 AM79 °FClear.10 mph67%29.93 "Hg10 mi
1:53 AM80 °FClear.9 mph64%29.94 "Hg10 mi
12:53 AM81 °FClear.10 mph62%29.96 "Hg10 mi
11:53 PM
Wed, Jun 29
80 °FPassing clouds.7 mph67%29.96 "Hg10 mi
10:53 PM85 °FClear.6 mph55%29.95 "Hg10 mi
9:53 PM86 °FPassing clouds.6 mph53%29.92 "Hg10 mi
8:53 PM89 °FPassing clouds.7 mph45%29.91 "Hg10 mi
7:53 PM91 °FPassing clouds.12 mph44%29.91 "Hg10 mi
6:53 PM93 °FPassing clouds.10 mph36%29.91 "Hg10 mi
5:53 PM95 °FPassing clouds.13 mph30%29.93 "Hg10 mi
4:53 PM94 °FScattered clouds.5 mph30%29.93 "Hg10 mi
3:53 PM94 °FScattered clouds.8 mph29%29.96 "Hg10 mi
2:53 PM95 °FPartly sunny.9 mph27%29.96 "Hg10 mi
1:53 PM94 °FPartly sunny.8 mph32%29.98 "Hg10 mi
12:53 PM92 °FPartly sunny.9 mph37%30.00 "Hg10 mi
11:53 AM90 °FPartly sunny.7 mph43%30.01 "Hg10 mi
10:53 AM87 °FPartly sunny.9 mph51%30.03 "Hg10 mi
9:53 AM84 °FHigh level clouds.7 mph55%30.03 "Hg10 mi
Weather by CustomWeather, © 2016

See weather overviewHow to use our weather pages